, MO

(GMT )
Kansas City

Weather History for KMKC - January, 2013

Change the Weather History Date:

Thursday, January 24, 2013

  Actual Average Record
Temperature  
Mean Temperature 18 °F -  
Max Temperature 27 °F 37 °F 61 °F (2015)
Min Temperature 10 °F 21 °F 1 °F (2008)
Degree Days  
Heating Degree Days 46    
Moisture  
Dew Point 5 °F    
Average Humidity 49    
Maximum Humidity 61    
Minimum Humidity 39    
Precipitation  
Precipitation 0.00 in - - ()
Sea Level Pressure  
Sea Level Pressure 30.39 in    
Wind  
Wind Speed 11 mph (ENE)    
Max Wind Speed 15 mph    
Max Gust Speed 21 mph    
Visibility 10 miles    
Events      
Averages and records for this station are not official NWS values.
T = Trace of Precipitation, MM = Missing Value Source: NWS Daily Summary

Daily Weather History Graph

Daily Weather History Graph

Search for Another Location

Airport or City:

Trip Planner

Search our weather history database for the weather conditions in past years. The results will help you decide how hot, cold, wet, or windy it might be!

Date:

Astronomy

Jan. 24, 2013 Rise Set
Actual Time 7:31 AM CST 5:30 PM CST
Civil Twilight 7:02 AM CST 5:59 PM CST
Nautical Twilight 6:30 AM CST 6:31 PM CST
Astronomical Twilight 5:58 AM CST 7:03 PM CST
Moon 3:33 PM CST (1/24) 5:29 AM CST (1/24)
Length of Visible Light 10h 56m
Length of Day
9h 59m
Waxing Gibbous, 94% of the Moon is Illuminated
Jan 24
Waxing Gibbous
Jan 26
Full
Feb 3
Last Quarter
Feb 10
New
Feb 17
First Quarter

Hourly Weather History & Observations

Time (CST) Temp. Windchill Dew Point Humidity Pressure Visibility Wind Dir Wind Speed Gust Speed Precip Events Conditions
12:54 AM 23.0 °F 12.4 °F 10.0 °F 58% 30.47 in 10.0 mi NNE 10.4 mph - N/A   Clear
1:54 AM 21.0 °F 9.3 °F 7.0 °F 55% 30.48 in 10.0 mi North 11.5 mph - N/A   Clear
2:54 AM 18.0 °F 5.4 °F 5.0 °F 57% 30.52 in 10.0 mi NNE 11.5 mph 20.7 mph N/A   Clear
3:54 AM 16.0 °F 2.3 °F 3.0 °F 57% 30.50 in 10.0 mi NNE 12.7 mph - N/A   Clear
4:54 AM 14.0 °F -1.4 °F 1.9 °F 59% 30.51 in 10.0 mi NE 15.0 mph - N/A   Clear
5:54 AM 12.0 °F -2.7 °F -0.0 °F 59% 30.51 in 10.0 mi ENE 12.7 mph - N/A   Clear
6:54 AM 10.9 °F -2.6 °F -0.9 °F 59% 30.54 in 10.0 mi ENE 10.4 mph - N/A   Clear
7:54 AM 10.0 °F -5.2 °F -0.9 °F 61% 30.54 in 10.0 mi ENE 12.7 mph - N/A   Clear
8:54 AM 12.0 °F -2.7 °F -0.0 °F 59% 30.54 in 10.0 mi East 12.7 mph 19.6 mph N/A   Clear
9:54 AM 15.1 °F 1.8 °F 1.0 °F 54% 30.57 in 10.0 mi East 11.5 mph - N/A   Clear
10:54 AM 18.0 °F 3.6 °F 1.9 °F 50% 30.52 in 10.0 mi East 15.0 mph - N/A   Clear
11:54 AM 21.0 °F 9.9 °F 3.0 °F 46% 30.50 in 10.0 mi ENE 10.4 mph - N/A   Clear
12:54 PM 23.0 °F 11.1 °F 3.0 °F 42% 30.43 in 10.0 mi East 12.7 mph - N/A   Clear
1:54 PM 24.1 °F 12.5 °F 3.0 °F 40% 30.38 in 10.0 mi East 12.7 mph - N/A   Clear
2:54 PM 26.1 °F 17.6 °F 3.9 °F 39% 30.34 in 10.0 mi East 8.1 mph - N/A   Clear
3:54 PM 25.0 °F 14.2 °F 3.9 °F 41% 30.32 in 10.0 mi East 11.5 mph - N/A   Mostly Cloudy
4:54 PM 26.1 °F 15.6 °F 6.1 °F 43% 30.30 in 10.0 mi East 11.5 mph - N/A   Overcast
5:54 PM 26.1 °F 15.6 °F 6.1 °F 43% 30.29 in 10.0 mi East 11.5 mph - N/A   Overcast
6:54 PM 26.1 °F 16.8 °F 7.0 °F 44% 30.27 in 10.0 mi ESE 9.2 mph - N/A   Overcast
7:54 PM 26.1 °F 18.4 °F 7.0 °F 44% 30.28 in 10.0 mi East 6.9 mph - N/A   Overcast
8:11 PM 26.6 °F 17.5 °F 6.8 °F 43% 30.22 in 10.0 mi ESE 9.2 mph - N/A   Overcast
8:54 PM 27.0 °F 21.6 °F 7.0 °F 43% 30.26 in 10.0 mi ESE 4.6 mph - N/A   Overcast
9:35 PM 26.6 °F 20.0 °F 8.6 °F 47% 30.21 in 10.0 mi East 5.8 mph - N/A   Overcast
9:54 PM 27.0 °F 20.5 °F 9.0 °F 47% 30.23 in 10.0 mi East 5.8 mph - N/A   Overcast
10:54 PM 27.0 °F 19.5 °F 9.0 °F 47% 30.21 in 10.0 mi ESE 6.9 mph - N/A   Overcast
11:54 PM 27.0 °F 21.6 °F 10.0 °F 49% 30.22 in 10.0 mi East 4.6 mph - N/A   Overcast